Volver al catálogo

COSMOS 1125

ActivoMilitarLEO
NORAD 11510·PAYLOAD·🇷🇺 Russia

Lanzado Aug 28, 1979 desde Plesetsk Cosmodrome

Loading…

Próximos Pases (próximas 24 horas)

TLE

ActualizadoSource: Space-Track

Época: Sep 14, 2026, 07:46 UTC

1 11510U 79078A   26257.32398306  .00000081  00000-0  38291-4 0  9991
2 11510  74.0367  12.1166 0013207 219.7990 140.2194 14.34150114458219

Sigue COSMOS 1125 en tiempo real con AllMySat

Download on the App Store